Baku, Azerbaijan

3:14 PM +04 on December 11, 2018 (GMT +0400)
Bina

Weather History for UBBB - March, 2018

Change the Weather History Date:

Saturday, March 10, 2018

  Actual Average Record
Temperature  
Mean Temperature 46 °F -  
Max Temperature 49 °F - - ()
Min Temperature 42 °F - - ()
Degree Days  
Heating Degree Days 18    
Moisture  
Dew Point 43 °F    
Average Humidity 89    
Maximum Humidity 100    
Minimum Humidity 75    
Precipitation  
Precipitation 0.08 in - - ()
Sea Level Pressure  
Sea Level Pressure 29.95 in    
Wind  
Wind Speed 19 mph ()    
Max Wind Speed 36 mph    
Max Gust Speed 39 mph    
Visibility 6.0 miles    
Events Rain    
T = Trace of Precipitation, MM = Missing Value Source: Averaged Metar Reports

Daily Weather History Graph

Daily Weather History Graph

Search for Another Location

Airport or City:

Astronomy

Mar. 10, 2018 Rise Set
Actual Time 6:59 AM +04 6:40 PM +04
Civil Twilight 6:32 AM +04 7:07 PM +04
Nautical Twilight 6:01 AM +04 7:39 PM +04
Astronomical Twilight 5:29 AM +04 8:11 PM +04
Moon 2:14 AM +04 (3/10) 12:12 PM +04 (3/10)
Length of Visible Light 12h 35m
Length of Day
11h 40m
Last Quarter, 42% of the Moon is Illuminated
Mar 10
Last Quarter
Mar 17
New
Mar 24
First Quarter
Mar 31
Full
Apr 8
Last Quarter

Hourly Weather History & Observations

Time (+04) Temp. Windchill Dew Point Humidity Pressure Visibility Wind Dir Wind Speed Gust Speed Precip Events Conditions
12:00 AM 46.4 °F 37.7 °F 42.8 °F 87% 29.74 in 6.2 mi NW 26.5 mph 39.1 mph N/A   Overcast
12:30 AM 46.4 °F 37.7 °F 42.8 °F 87% 29.77 in 6.2 mi NW 26.5 mph 39.1 mph N/A   Overcast
1:00 AM 46 °F - 42 °F 80% 29.76 in 6 mi WNW 35.8 mph - -   Overcast
1:00 AM 46.4 °F 37.7 °F 42.8 °F 87% 29.77 in 6.2 mi NW 26.5 mph 38.0 mph N/A   Overcast
1:30 AM 46.4 °F 38.1 °F 42.8 °F 87% 29.77 in 6.2 mi NW 24.2 mph 35.7 mph N/A   Overcast
2:00 AM 46.4 °F 38.3 °F 42.8 °F 87% 29.80 in 6.2 mi NW 23.0 mph 34.5 mph N/A   Overcast
2:30 AM 46.4 °F 37.4 °F 42.8 °F 87% 29.80 in 6.2 mi NW 28.8 mph - N/A   Overcast
3:00 AM 46.4 °F 38.1 °F 42.8 °F 87% 29.80 in 6.2 mi NW 24.2 mph 35.7 mph N/A   Overcast
3:30 AM 44.6 °F 35.7 °F 42.8 °F 93% 29.83 in 6.2 mi NW 24.2 mph - N/A Rain Light Rain
4:00 AM 45 °F - 42 °F 85% 29.82 in 6 mi WNW 35.8 mph - - Rain Light Rain
4:00 AM 44.6 °F 35.5 °F 42.8 °F 93% 29.83 in 6.2 mi NNW 25.3 mph 36.8 mph N/A Rain Light Rain
4:30 AM 44.6 °F 35.7 °F 42.8 °F 93% 29.83 in 6.2 mi NNW 24.2 mph - N/A Rain Light Rain
5:00 AM 44.6 °F 35.9 °F 42.8 °F 93% 29.83 in 6.2 mi NW 23.0 mph - N/A Rain Light Rain
6:00 AM 44.6 °F 36.6 °F 42.8 °F 93% 29.86 in 6.2 mi NW 19.6 mph - N/A Rain Light Rain
6:30 AM 44.6 °F 36.4 °F 42.8 °F 93% 29.89 in 6.2 mi NW 20.7 mph - N/A Rain Light Rain
7:00 AM - - - N/A% 29.89 in 6.2 mi NW 18.4 mph - N/A Rain Light Rain
7:30 AM 44.6 °F 36.6 °F 42.8 °F 93% 29.92 in 6.2 mi NW 19.6 mph - N/A Rain Light Rain
8:00 AM 44.6 °F 36.6 °F 42.8 °F 93% 29.95 in 6.2 mi NW 19.6 mph - N/A Rain Light Rain
8:30 AM 44.6 °F 37.2 °F 42.8 °F 93% 29.95 in 6.2 mi NW 17.3 mph - N/A Rain Light Rain
9:00 AM 44.6 °F 36.9 °F 44.6 °F 100% 29.95 in 6.2 mi NW 18.4 mph - N/A Rain Light Rain
9:30 AM 46.4 °F 39.5 °F 44.6 °F 93% 29.98 in 6.2 mi NW 17.3 mph - N/A   Overcast
10:00 AM 45 °F - 43 °F 90% 29.98 in 6 mi West 20.1 mph - - Rain Light Rain
10:00 AM 44.6 °F 36.6 °F 44.6 °F 100% 29.98 in 6.2 mi NW 19.6 mph - N/A   Overcast
10:30 AM 44.6 °F 36.9 °F 44.6 °F 100% 29.98 in 6.2 mi NW 18.4 mph - N/A   Overcast
11:00 AM 46.4 °F 39.2 °F 44.6 °F 93% 29.98 in 6.2 mi NW 18.4 mph - N/A   Overcast
11:30 AM 46.4 °F 39.0 °F 44.6 °F 93% 30.01 in 6.2 mi NW 19.6 mph - N/A   Overcast
12:00 PM 46.4 °F 38.7 °F 44.6 °F 93% 30.01 in 6.2 mi NW 20.7 mph - N/A   Overcast
12:30 PM 48.2 °F - 44.6 °F 87% 30.01 in 6.2 mi NW 23.0 mph - N/A   Overcast
1:00 PM 47 °F - 44 °F 83% 30.00 in 6 mi WNW 20.1 mph - -   Overcast
1:00 PM 48.2 °F - 44.6 °F 87% 30.01 in 6.2 mi NNW 19.6 mph - N/A   Mostly Cloudy
1:30 PM 48.2 °F - 42.8 °F 82% 30.01 in 6.2 mi NNW 18.4 mph - N/A   Mostly Cloudy
2:00 PM 48.2 °F - 42.8 °F 82% 30.01 in 6.2 mi NNW 17.3 mph - N/A   Mostly Cloudy
2:30 PM 50.0 °F - 44.6 °F 82% 30.01 in 6.2 mi NW 13.8 mph - N/A   Mostly Cloudy
3:00 PM 48.2 °F - 42.8 °F 82% 30.01 in 6.2 mi NNW 15.0 mph - N/A   Mostly Cloudy
3:30 PM 50.0 °F - 42.8 °F 76% 30.01 in 6.2 mi NNW 12.7 mph - N/A   Mostly Cloudy
4:00 PM 48 °F - 42 °F 75% 30.01 in 6 mi NW 11.2 mph - -   Overcast
4:00 PM 48.2 °F - 42.8 °F 82% 30.01 in 6.2 mi North 10.4 mph - N/A   Mostly Cloudy
4:30 PM 48.2 °F - 42.8 °F 82% 30.01 in 6.2 mi North 10.4 mph - N/A   Mostly Cloudy
5:00 PM 46.4 °F 41.9 °F 42.8 °F 87% 30.01 in 6.2 mi North 9.2 mph - N/A   Mostly Cloudy
5:30 PM 46.4 °F 42.4 °F 42.8 °F 87% 30.01 in 6.2 mi North 8.1 mph - N/A   Mostly Cloudy
6:00 PM 46.4 °F 42.4 °F 42.8 °F 87% 30.01 in 6.2 mi NNE 8.1 mph - N/A   Mostly Cloudy
6:30 PM 44.6 °F 40.7 °F 42.8 °F 93% 30.01 in 6.2 mi North 6.9 mph - N/A   Overcast
7:00 PM 45 °F - 41 °F 81% 30.03 in 6 mi NW 4.5 mph - -   Overcast
7:00 PM 44.6 °F 40.2 °F 42.8 °F 93% 30.04 in 6.2 mi North 8.1 mph - N/A Rain Light Rain
7:30 PM 44.6 °F 40.7 °F 42.8 °F 93% 30.04 in 6.2 mi North 6.9 mph - N/A Rain Light Rain
8:00 PM 44.6 °F 40.7 °F 42.8 °F 93% 30.04 in 6.2 mi NNW 6.9 mph - N/A Rain Light Rain
8:30 PM 44.6 °F 40.7 °F 42.8 °F 93% 30.04 in 6.2 mi NNW 6.9 mph - N/A   Overcast
9:00 PM 44.6 °F 40.2 °F 42.8 °F 93% 30.04 in 6.2 mi NNW 8.1 mph - N/A   Overcast
9:30 PM 44.6 °F 40.2 °F 42.8 °F 93% 30.06 in 6.2 mi NNW 8.1 mph - N/A   Overcast
10:00 PM 44 °F - 42 °F 88% 30.06 in 6 mi WNW 6.7 mph - -   Overcast
10:00 PM 44.6 °F 39.7 °F 42.8 °F 93% 30.06 in 6.2 mi NW 9.2 mph - N/A   Overcast
10:30 PM 44.6 °F 39.7 °F 42.8 °F 93% 30.06 in 2.5 mi NNW 9.2 mph - N/A Rain Light Rain
11:00 PM 44.6 °F 40.2 °F 42.8 °F 93% 30.06 in 1.9 mi NW 8.1 mph - N/A Rain Light Rain
11:30 PM 42.8 °F 37.5 °F 42.8 °F 100% 30.06 in 2.5 mi NNW 9.2 mph - N/A Rain Light Rain